Location: Aberffraw Bay
(53.1667°N, 4.4667°W)
Time: 00:27:27
(UTC+00:00)

Daily predictions for brighter satellites

Satellite Brightness Start Highest point End
(mag) Time Altitude Azimuth Time Altitude Azimuth Time Altitude Azimuth
SJ 16-02 4.5 03:59:59 10° E 03:59:59 10° E 04:00:01 10° E
Cosmos 2278 Rocket 4.1 04:10:02 23° NNE 04:10:26 23° NNE 04:14:56 10° E
BREEZE-M DEB (TANK) 4.4 04:13:17 52° SE 04:13:17 52° SE 04:25:32 10° ESE
Cosmos 1943 Rocket 4.5 04:34:47 14° N 04:35:43 14° NNE 04:38:43 10° NE
SL-16 R/B 2.6 04:55:44 55° NNE 04:55:44 55° NNE 05:00:09 10° NNE
Cosmos 724 4.3 04:55:15 79° ESE 04:55:15 79° ESE 05:01:19 10° NE
USA 215 3.3 04:51:41 10° ENE 04:58:08 65° N 04:58:40 63° NNW
ALOS 4.0 04:53:38 10° NNE 04:55:34 25° NNE 04:55:34 25° NNE
Meteor 1-24 Rocket 3.7 05:00:43 73° ENE 05:00:43 73° ENE 05:06:12 10° SSE
Cosmos 2322 Rocket 2.3 05:03:53 70° NNE 05:03:53 70° NNE 05:08:51 10° NNE
Cosmos 2360 Rocket 2.5 05:04:24 48° SSE 05:05:41 62° ESE 05:11:16 10° NE
Okean 1 Rocket 3.7 05:15:35 52° NE 05:15:35 52° NE 05:19:11 10° NNE
Cosmos 990 Rocket 4.4 05:13:55 43° N 05:15:18 58° ENE 05:20:22 10° SE
Cosmos 1980 Rocket 3.6 05:22:21 24° N 05:22:21 24° N 05:25:37 10° NNE
Cosmos 1844 4.0 05:23:43 51° SSW 05:23:43 51° SSW 05:28:25 10° SSE
FENGYUN 3A 3.6 05:18:28 10° NNE 05:23:25 68° NW 05:23:25 68° NW
COSMO-SKYMED 1 3.9 05:21:19 10° SSE 05:23:31 30° S 05:23:31 30° S
Cosmos 2237 4.1 05:25:13 57° SSW 05:26:30 88° NW 05:32:17 10° NNE
GEOS 3 Rocket 4.5 05:23:33 10° SSE 05:27:18 36° SSW 05:27:18 36° SSW
Cosmos 1607 4.3 05:29:09 48° NW 05:29:38 49° NNW 05:35:57 10° NE
SL-08 R/B 4.5 05:29:37 58° W 05:29:49 58° WNW 05:36:05 10° N
Cosmos 1898 Rocket 3.7 05:30:05 35° N 05:32:15 67° ENE 05:37:24 10° SE
Lacrosse 5 rocket 1.8 05:34:22 50° NE 05:34:22 50° NE 05:37:39 10° E
Cosmos 2016 Rocket 4.3 05:34:56 46° NW 05:34:56 46° NW 05:40:16 10° N
Cosmos 2061 Rocket 4.2 05:35:51 47° NW 05:35:51 47° NW 05:41:27 10° N
SJ 16-02 2.1 05:37:01 40° S 05:37:01 40° S 05:39:56 10° S
Okean 1-7 Rocket 4.4 05:31:39 13° N 05:35:41 51° ENE 05:40:06 10° SSE
Cosmos 1725 Rocket 4.0 05:36:25 52° W 05:36:49 53° WNW 05:42:58 10° N
Cosmos 1867 3.7 05:35:55 37° SSW 05:38:06 76° SE 05:43:36 10° NE
Cosmos 1470 3.2 05:35:42 10° S 05:39:30 59° E 05:43:19 10° NNE
Meteor PRIRODA 4.3 05:38:01 10° NNE 05:41:36 54° E 05:45:10 10° S
Cosmos 192 4.3 05:50:33 56° W 05:51:06 61° WNW 05:55:59 10° NNE
ERS-2 4.2 05:47:36 10° S 05:48:37 18° S 05:48:37 18° S
Cosmos 2369 Rocket 4.2 05:48:33 11° NNW 05:52:14 19° NNE 05:56:10 10° ENE
Meteor 1-31 Rocket 4.4 05:48:47 10° N 05:50:19 22° N 05:50:19 22° N
PSLV R/B 3.8 05:49:00 10° S 05:53:06 75° WSW 05:53:40 62° NW
SL-8 R/B 4.2 05:52:30 41° SW 05:53:27 47° S 05:58:05 10° ESE
Cosmos 1356 Rocket 3.4 05:49:56 10° S 05:53:59 78° E 05:58:08 10° NNE
Meteor 2-5 Rocket 4.5 05:56:49 32° SW 05:56:49 32° SW 06:00:27 10° SSW
Cosmos 2278 Rocket 2.3 05:51:54 23° NNW 05:55:31 74° NE 06:01:12 10° SE
Cosmos 1844 Rocket 3.9 05:57:41 25° SW 05:57:41 25° SW 06:00:40 10° SSW
SJ-12 3.8 05:53:23 10° N 05:57:32 67° WNW 05:58:45 43° SW
MOS 1 Rocket 3.4 05:55:50 10° S 06:00:53 62° W 06:03:43 24° NNW
Nadezhda 4 Rocket 4.1 05:55:53 10° N 06:02:03 74° ENE 06:08:10 10° SSE
Cosmos 2322 3.8 05:57:24 10° SSW 06:03:07 82° ESE 06:08:53 10° NNE
DMSP B5D1-3 4.4 05:58:46 10° SSE 06:03:53 87° WSW 06:09:02 10° NNW
Cosmos 1626 Rocket 4.4 05:59:33 10° N 06:03:56 52° ENE 06:08:19 10° SSE
Cosmos 1697 Rocket 4.5 06:04:14 15° NNW 06:04:41 16° NNW 06:08:02 10° NNE
Cosmos 2333 Rocket 2.4 05:59:16 10° SSW 06:04:53 74° ESE 06:10:33 10° NE
Cosmos 1726 2.1 06:02:55 10° S 06:06:37 79° E 06:10:23 10° NNE
Meteor 2-10 4.2 06:02:52 10° S 06:08:34 84° E 06:14:06 10° NNE
ADEOS 3.7 06:03:45 10° N 06:08:45 48° WNW 06:12:27 18° SW
H-2A R/B 2.6 06:05:10 10° NNE 06:08:53 86° E 06:12:35 10° SSW
Okean O Rocket 3.9 06:07:34 10° NE 06:11:17 26° E 06:14:57 10° SSE
Cosmos 2237 Rocket 4.2 06:06:57 10° SSE 06:11:48 30° ESE 06:16:42 10° NE
Cosmos 468 Rocket 4.5 06:06:53 10° S 06:12:03 62° ESE 06:17:17 10° NNE
Cosmos 1937 Rocket 3.4 06:09:27 19° NNW 06:13:18 83° WSW 06:18:35 10° SSE
IRIDIUM 104 4.3 06:08:13 10° SSW 06:13:22 58° W 06:18:32 10° N
Meteor 1-22 Rocket 4.3 06:08:26 10° SSW 06:14:01 55° WNW 06:19:54 10° N
Cosmos 1340 3.7 06:10:43 10° N 06:14:23 46° ENE 06:18:00 10° SSE
CZ-2C R/B 4.3 06:11:32 10° N 06:12:54 15° NNW 06:12:54 15° NNW
Envisat 3.3 06:11:09 10° NNE 06:16:15 71° ESE 06:21:19 10° S
Cosmos 1455 Rocket 3.0 06:11:54 10° S 06:16:17 86° E 06:20:39 10° NNE
Cosmos 1953 2.9 06:16:00 10° S 06:19:55 57° E 06:23:51 10° NNE
Cosmos 1943 Rocket 3.7 06:16:20 10° NNW 06:21:21 31° NE 06:26:22 10° ESE
IRIDIUM 114 4.5 06:17:29 10° SSW 06:22:32 49° W 06:27:39 10° N
Cosmos 2219 Rocket 2.2 06:17:09 10° SSW 06:22:45 87° ESE 06:28:23 10° NNE
Cosmos 44 Rocket 3.4 06:20:39 26° NW 06:23:41 81° SW 06:28:55 10° SE
COSMOS 2428 2.8 06:18:08 10° SSW 06:23:50 78° ESE 06:29:33 10° NE
Cosmos 372 Rocket 4.2 06:22:56 11° NNW 06:27:59 75° ENE 06:33:14 10° SSE
CZ-2C R/B 2.6 06:24:05 10° SSE 06:29:18 86° ENE 06:34:39 10° NNW
Cosmos 2233 Rocket 4.5 06:24:09 10° SW 06:29:51 36° WNW 06:35:33 10° N
CZ-4B R/B 2.9 06:26:53 10° N 06:30:19 42° WNW 06:33:43 10° SW
Cosmos 2333 4.1 06:25:04 10° SW 06:30:38 65° NW 06:36:15 10° NNE
Cosmos 2084 Rocket 4.4 06:30:24 20° NNW 06:32:58 40° NNE 06:37:09 10° E
deb Chang Zheng 4 3.9 06:28:59 10° N 06:33:01 41° WNW 06:36:59 10° SW
DMSP B5D2-2 4.3 06:29:54 10° SSE 06:35:07 74° ENE 06:40:24 10° NNW
ALOS 3.8 06:31:55 10° N 06:34:05 18° NW 06:34:05 18° NW
SL-16 R/B 3.3 06:37:37 22° WNW 06:39:23 25° NW 06:44:04 10° NNE
Cosmos 2026 Rocket 4.4 06:33:41 10° N 06:39:59 70° ENE 06:46:20 10° SSE
USA 215 3.3 06:34:25 10° ESE 06:40:57 77° NNE 06:46:00 18° WNW
Cosmos 1602 Rocket 3.6 06:38:04 10° N 06:42:32 88° E 06:47:00 10° S
CZ-4B DEB 4.3 06:38:42 10° NNE 06:44:19 86° ESE 06:49:53 10° SSW
Meteor 2-13 Rocket 4.5 06:39:24 10° NNW 06:45:28 60° W 06:51:29 10° S
Cosmos 1892 Rocket 4.5 06:44:20 21° NW 06:45:53 26° W 06:49:31 10° SW
Cosmos 1758 3.7 06:42:56 10° SW 06:46:45 40° WNW 06:50:37 10° N
Cosmos 2322 Rocket 3.2 06:45:44 20° WNW 06:48:02 26° NW 06:52:42 10° NNE
Cosmos 2150 Rocket 4.5 06:44:16 10° NNW 06:49:31 63° ENE 06:54:50 10° SE
Cosmos 2360 Rocket 2.8 06:46:13 16° W 06:50:04 34° NW 06:55:13 10° NNE
Okean 1 Rocket 4.4 06:52:50 19° WNW 06:53:05 19° WNW 06:56:21 10° NNW
SL-19 R/B 4.5 06:49:01 10° NNE 06:53:39 83° WNW 06:57:38 10° SSW
H-2A R/B 2.7 06:49:35 10° NNE 06:54:01 85° ESE 06:58:32 10° SSW
NOAA 12 4.3 06:49:02 10° NNE 06:54:20 78° ESE 06:59:37 10° SSW
SMAP 3.1 06:55:21 10° NNE 07:00:03 89° E 07:04:43 10° SSW
Cosmos 1464 Rocket 4.1 06:54:13 10° SSW 07:00:08 49° WNW 07:06:07 10° N
Cosmos 1908 3.1 06:56:24 10° SSW 07:00:12 81° WNW 07:04:03 10° N
Cosmos 1939 Rocket 4.0 06:56:27 10° NNE 07:00:20 47° E 07:04:08 10° S
Cosmos 1825 Rocket 4.1 06:56:55 10° N 07:01:22 61° ENE 07:05:47 10° SSE
Meteor 1-11 4.2 06:58:32 10° NNW 07:04:11 90° WSW 07:09:46 10° S
Cosmos 2195 Rocket 4.5 06:58:39 10° NNW 07:04:58 74° W 07:11:11 10° S
MOS 1-B 4.3 06:59:12 10° NNE 07:05:00 81° WNW 07:10:47 10° SSW
Meteor 1-16 Rocket 4.3 06:59:09 10° SSW 07:05:03 80° WNW 07:11:02 10° NNE
CZ-4 R/B 4.1 07:02:01 10° NE 07:05:07 22° E 07:08:11 10° SE
Cosmos 1980 Rocket 4.1 07:04:07 10° NW 07:06:49 14° NNW 07:09:40 10° NNE
Cosmos 540 Rocket 3.5 07:06:03 10° SSW 07:11:11 89° WNW 07:16:22 10° NNE
Cosmos 2298 Rocket 4.1 07:06:33 10° NNW 07:11:56 87° WSW 07:17:16 10° SSE
Lacrosse 5 rocket 1.4 07:09:58 15° WNW 07:13:04 56° SW 07:16:43 10° SE
Cosmos 1346 Rocket 2.8 07:09:48 10° NNW 07:13:47 86° ENE 07:17:46 10° SSE
Spot 2 4.0 07:10:19 10° N 07:14:20 52° WNW 07:18:15 10° SW
YAOGAN 6 3.5 07:12:25 10° N 07:15:36 28° WNW 07:18:48 10° SW
Cosmos 1470 4.2 07:13:24 10° WSW 07:15:56 17° WNW 07:18:30 10° NNW
Cosmos 2098 Rocket 4.1 07:09:07 10° NNW 07:16:11 86° W 07:22:01 10° S
Cosmos 1703 3.8 07:13:01 10° NNW 07:16:36 36° W 07:20:10 10° SSW
Cosmos 1892 4.3 07:14:27 10° N 07:18:00 36° ENE 07:21:33 10° SE
Cosmos 1953 Rocket 4.0 07:15:44 10° N 07:20:02 62° ENE 07:24:20 10° SSE
Cosmos 1867 4.2 07:17:07 10° W 07:22:10 37° NNW 07:27:15 10° NE
Cosmos 1570 Rocket 4.0 07:17:29 10° SSW 07:22:44 90° ESE 07:28:01 10° NNE
NOSS 0 Rocket 3.9 07:17:00 10° SW 07:23:13 82° NW 07:29:27 10° NNE
Cosmos 921 Rocket 3.5 07:19:59 10° SW 07:23:58 37° WNW 07:27:54 10° N
ATLAS CENTAUR R/B 4.5 07:22:23 10° SSE 07:24:46 17° ESE 07:27:10 10° ENE
PAYLOAD B 4.3 07:19:21 10° NNE 07:24:51 61° WNW 07:30:20 10° SW
Cosmos 1092 Rocket 4.2 07:20:05 10° NNW 07:25:59 50° W 07:31:51 10° SSW
Cosmos 1544 Rocket 4.2 07:22:55 10° SW 07:26:49 32° WNW 07:30:45 10° N
Cosmos 1763 Rocket 3.8 07:22:04 10° SW 07:27:01 44° NW 07:32:03 10° NNE
Cosmos 841 Rocket 3.4 07:23:59 10° SSW 07:29:06 71° WNW 07:34:18 10° NNE
Cosmos 1328 4.5 07:28:13 10° NNW 07:31:49 34° W 07:35:23 10° SSW
Cosmos 1400 Rocket 3.0 07:28:43 10° SSW 07:32:43 54° WNW 07:36:47 10° N
Cosmos 1461 3.2 07:28:38 10° SW 07:33:22 86° NW 07:38:11 10° NE
FengYun 1-2 T 4.3 07:28:17 10° NNE 07:33:58 77° WNW 07:39:37 10° SSW
Cosmos 2084 3.6 07:30:33 10° WSW 07:34:47 56° NW 07:39:08 10° NE
Cosmos 2034 Rocket 4.4 07:29:00 10° SW 07:34:59 41° WNW 07:40:59 10° N
CZ-4B R/B 3.3 07:29:19 10° NNE 07:34:59 68° WNW 07:40:35 10° SSW
CZ-2C R/B 4.0 07:31:03 10° SSE 07:35:28 71° ENE 07:39:55 10° NNW
Cosmos 2208 Rocket 4.1 07:31:54 10° SSW 07:37:22 85° WNW 07:42:50 10° NNE
Cosmos 2369 Rocket 2.8 07:32:01 10° NNW 07:37:34 54° NE 07:43:02 10° SE
Okean-O 4.2 07:34:17 10° NNE 07:38:30 41° E 07:42:42 10° S
AQUARIUS 4.4 07:34:23 10° N 07:38:42 47° WNW 07:43:01 10° SW
Cosmos 2278 Rocket 3.3 07:34:35 10° NW 07:39:04 24° WSW 07:43:33 10° SSW
Cosmos 1408 3.8 07:36:16 10° N 07:39:41 41° ENE 07:43:06 10° SE
SL-16 R/B 3.4 07:34:31 10° S 07:39:56 49° ESE 07:45:24 10° NE
Cosmos 1606 Rocket 3.7 07:35:45 10° S 07:40:03 78° E 07:44:24 10° NNE
Cosmos 1726 3.9 07:40:38 10° W 07:42:22 13° WNW 07:44:07 10° NNW
H-2A R/B 4.5 07:40:52 10° NNW 07:42:29 13° WNW 07:44:07 10° W
Cosmos 2279 Rocket 4.1 07:39:16 10° S 07:45:30 88° E 07:51:49 10° N
